EW5807 Weather Reports


Display with metric or nautical units.
time (UTC)temp
F
wind
direction
speed
MPH
gust
MPH
rain 1hr
in
rain 24hr
in
rain mn
in
humidity
%
barometer
mb
20260906030044 66 126 0.0 3.0 0.00 0.00 0.00 31 1007.0
20260906024542 68 140 0.0 0.0 0.00 0.00 0.00 29 1006.6
20260906023034 69 263 0.0 1.0 0.00 0.00 0.00 28 1006.3
20260906021530 71 271 1.0 5.0 0.00 0.00 0.00 27 1006.0
20260906020059 73 293 3.0 7.0 0.00 0.00 0.00 25 1005.8
20260906014557 76 310 4.0 12.0 0.00 0.00 0.00 24 1005.7
20260906013045 78 303 8.0 12.0 0.00 0.00 0.00 22 1005.3
20260906011542 79 299 7.0 11.0 0.00 0.00 0.00 20 1005.5
20260906010039 80 202 7.0 15.0 0.00 0.00 0.00 13 1005.4
20260906004537 80 247 10.0 15.0 0.00 0.00 0.00 14 1005.4
20260906003034 79 208 12.0 19.0 0.00 0.00 0.00 15 1005.5
20260906001533 79 124 4.0 12.0 0.00 0.00 0.00 15 1005.4
20260906000028 79 218 10.0 16.0 0.00 0.00 0.00 16 1005.6
20260905234527 79 208 5.0 14.0 0.00 0.00 0.00 16 1005.9
20260905233031 79 215 10.0 16.0 0.00 0.00 0.00 15 1005.8
20260905231524 80 205 7.0 17.0 0.00 0.00 0.00 15 1006.0
20260905230022 82 221 8.0 18.0 0.00 0.00 0.00 14 1006.0
20260905224522 81 124 7.0 16.0 0.00 0.00 0.00 15 1006.1
20260905223033 82 226 10.0 20.0 0.00 0.00 0.00 15 1006.3
20260905221550 82 228 12.0 18.0 0.00 0.00 0.00 16 1006.5
20260905220053 82 188 12.0 18.0 0.00 0.00 0.00 17 1006.8
20260905214545 81 239 10.0 17.0 0.00 0.00 0.00 16 1006.9
20260905213044 81 242 7.0 18.0 0.00 0.00 0.00 17 1007.2
20260905211546 80 226 6.0 12.0 0.00 0.00 0.00 19 1007.6
20260905210058 79 185 5.0 11.0 0.00 0.00 0.00 21 1007.9
20260905204537 79 233 7.0 17.0 0.00 0.00 0.00 20 1008.1
20260905203038 78 204 4.0 14.0 0.00 0.00 0.00 21 1008.2
20260905201538 78 219 6.0 14.0 0.00 0.00 0.00 21 1008.3
20260905200050 77 244 6.0 11.0 0.00 0.00 0.00 23 1008.5
20260905194535 76 241 3.0 11.0 0.00 0.00 0.00 25 1008.7
20260905193031 75 243 3.0 11.0 0.00 0.00 0.00 27 1009.0
20260905191530 74 244 2.0 7.0 0.00 0.00 0.00 28 1009.3
20260905190031 73 58 0.0 4.0 0.00 0.00 0.00 31 1009.5
20260905184533 72 158 3.0 12.0 0.00 0.00 0.00 33 1010.0
20260905183028 70 217 2.0 6.0 0.00 0.00 0.00 35 1010.3
20260905181527 68 220 0.0 6.0 0.00 0.00 0.00 38 1010.4
20260905180029 67 354 1.0 6.0 0.00 0.00 0.00 39 1010.6
20260905174601 66 240 0.0 8.0 0.00 0.00 0.00 40 1010.7
20260905173053 64 56 1.0 5.0 0.00 0.00 0.00 44 1010.8
20260905171603 62 338 0.0 7.0 0.00 0.00 0.00 47 1010.9
20260905170056 60 60 4.0 8.0 0.00 0.00 0.00 49 1010.9
20260905164550 59 34 2.0 6.0 0.00 0.00 0.00 51 1011.1
20260905163051 59 338 0.0 5.0 0.00 0.00 0.00 52 1011.1
20260905161546 57 55 2.0 5.0 0.00 0.00 0.00 55 1011.1
20260905160050 56 94 4.0 8.0 0.00 0.00 0.00 56 1011.2
20260905154553 55 347 2.0 8.0 0.00 0.00 0.00 58 1011.2
20260905153045 54 60 3.0 6.0 0.00 0.00 0.00 61 1011.3
20260905151536 52 55 1.0 4.0 0.00 0.00 0.00 65 1011.5
20260905150033 49 55 0.0 3.0 0.00 0.00 0.00 71 1011.7
20260905144541 46 217 0.0 0.0 0.00 0.00 0.00 73 1011.7
20260905143031 44 216 0.0 0.0 0.00 0.00 0.00 75 1011.5
20260905141530 43 150 0.0 0.0 0.00 0.00 0.00 77 1011.5
20260905140034 42 150 0.0 2.0 0.00 0.00 0.00 77 1011.3
20260905134526 41 20 0.0 0.0 0.00 0.00 0.00 79 1011.0
20260905133024 40 20 0.0 0.0 0.00 0.00 0.00 81 1010.8
20260905131523 40 20 0.0 0.0 0.00 0.00 0.00 80 1010.6
20260905130022 40 20 0.0 0.0 0.00 0.00 0.00 78 1010.3
20260905124529 41 20 0.0 0.0 0.00 0.00 0.00 76 1010.3
20260905123015 43 25 0.0 0.0 0.00 0.00 0.00 76 1010.1
20260905121523 42 330 0.0 0.0 0.00 0.00 0.00 76 1010.0
20260905120020 43 127 0.0 0.0 0.00 0.00 0.00 72 1010.0
20260905114517 44 127 0.0 0.0 0.00 0.00 0.00 73 1009.9
20260905113017 44 127 0.0 0.0 0.00 0.00 0.00 76 1010.0
20260905111513 44 63 0.0 1.0 0.00 0.00 0.00 71 1010.0
20260905110011 44 139 0.0 0.0 0.00 0.00 0.00 72 1010.1
20260905104517 44 139 0.0 0.0 0.00 0.00 0.00 72 1010.0
20260905103007 44 190 0.0 0.0 0.00 0.00 0.00 72 1009.9
20260905101502 45 190 0.0 0.0 0.00 0.00 0.00 72 1009.7
20260905100106 46 226 0.0 0.0 0.00 0.00 0.00 74 1009.6
20260905094608 46 226 0.0 0.0 0.00 0.00 0.00 72 1009.4
20260905093056 46 226 0.0 0.0 0.00 0.00 0.00 70 1009.3
20260905091524 46 226 0.0 0.0 0.00 0.00 0.00 69 1009.2
20260905090023 46 226 0.0 0.0 0.00 0.00 0.00 68 1009.1
20260905084527 46 264 0.0 0.0 0.00 0.00 0.00 66 1009.0
20260905083016 48 264 0.0 2.0 0.00 0.00 0.00 57 1009.0
20260905081510 53 71 0.0 2.0 0.00 0.00 0.00 59 1008.8
20260905080020 53 67 2.0 3.0 0.00 0.00 0.00 58 1008.8
20260905074507 54 69 0.0 2.0 0.00 0.00 0.00 56 1008.7
20260905073006 54 65 1.0 5.0 0.00 0.00 0.00 56 1008.5
20260905071603 56 54 3.0 6.0 0.00 0.00 0.00 54 1008.3
20260905070056 56 70 4.0 7.0 0.00 0.00 0.00 54 1007.9
20260905064556 56 76 2.0 5.0 0.00 0.00 0.00 53 1008.0
20260905063048 56 68 3.0 5.0 0.00 0.00 0.00 53 1007.7
20260905061605 56 68 3.0 5.0 0.00 0.00 0.00 53 1007.6
20260905060041 57 58 3.0 7.0 0.00 0.00 0.00 52 1007.3
20260905054538 57 72 3.0 5.0 0.00 0.00 0.00 53 1007.2
20260905053006 57 69 3.0 6.0 0.00 0.00 0.00 52 1006.9
20260905051503 57 58 2.0 7.0 0.00 0.00 0.00 50 1006.7
20260905050057 58 58 4.0 7.0 0.00 0.00 0.00 49 1006.3
20260905044555 59 46 4.0 9.0 0.00 0.00 0.00 48 1006.1
20260905043112 60 49 5.0 9.0 0.00 0.00 0.00 46 1006.0
20260905041547 61 60 4.0 8.0 0.00 0.00 0.00 44 1005.9
20260905040052 62 60 5.0 11.0 0.00 0.00 0.00 43 1005.7
20260905034539 63 60 8.0 14.0 0.00 0.00 0.00 41 1005.4
20260905033041 64 57 9.0 14.0 0.00 0.00 0.00 38 1005.2
20260905031532 62 62 0.0 3.0 0.00 0.00 0.00 36 1004.9